TimeEST,TemperatureF,Dew PointF,Humidity,Sea Level PressureIn,VisibilityMPH,Wind Direction,Wind SpeedMPH,Gust SpeedMPH,PrecipitationIn,Events,Conditions,WindDirDegrees,DateUTC
12:53 AM,64.9,60.1,84,29.96,10.0,WNW,8.1,-,N/A,,Clear,300,2011-11-11 05:53:00
1:53 AM,64.9,60.1,84,29.93,10.0,NW,4.6,-,N/A,,Clear,320,2011-11-11 06:53:00
2:53 AM,64.9,61.0,87,29.93,10.0,NNW,3.5,-,N/A,,Clear,330,2011-11-11 07:53:00
3:53 AM,64.9,62.1,90,29.94,10.0,NW,8.1,-,N/A,,Clear,320,2011-11-11 08:53:00
4:53 AM,66.9,62.1,84,29.96,9.0,NNW,11.5,-,N/A,,Partly Cloudy,330,2011-11-11 09:53:00
5:53 AM,66.0,62.1,87,29.99,8.0,NNW,10.4,-,N/A,,Clear,330,2011-11-11 10:53:00
7:40 AM,66.2,60.8,83,30.05,10.0,NNW,12.7,17.3,N/A,,Overcast,340,2011-11-11 12:40:00
7:53 AM,66.0,60.1,81,30.06,10.0,NNW,15.0,19.6,N/A,,Overcast,340,2011-11-11 12:53:00
8:29 AM,66.2,57.2,73,30.07,10.0,NNW,13.8,-,N/A,,Scattered Clouds,340,2011-11-11 13:29:00
8:53 AM,66.9,55.0,66,30.08,10.0,North,12.7,-,N/A,,Mostly Cloudy,350,2011-11-11 13:53:00
11:53 AM,72.0,54.0,53,30.08,10.0,North,11.5,-,N/A,,Partly Cloudy,10,2011-11-11 16:53:00
12:53 PM,75.0,55.9,51,30.05,10.0,North,13.8,23.0,N/A,,Clear,350,2011-11-11 17:53:00
1:53 PM,75.0,55.9,51,30.05,10.0,NNE,13.8,-,N/A,,Mostly Cloudy,30,2011-11-11 18:53:00
2:53 PM,73.9,55.9,53,30.06,10.0,NNE,18.4,23.0,N/A,,Clear,30,2011-11-11 19:53:00
3:53 PM,73.9,55.0,52,30.07,10.0,NNE,12.7,-,N/A,,Partly Cloudy,20,2011-11-11 20:53:00
4:53 PM,72.0,55.0,55,30.08,10.0,North,10.4,18.4,N/A,,Scattered Clouds,10,2011-11-11 21:53:00
5:53 PM,69.1,55.9,63,30.09,10.0,North,10.4,-,N/A,,Partly Cloudy,360,2011-11-11 22:53:00
6:53 PM,66.9,55.9,68,30.11,10.0,NNW,13.8,-,N/A,,Clear,340,2011-11-11 23:53:00
7:53 PM,66.0,55.9,70,30.13,10.0,NNW,12.7,-,N/A,,Clear,340,2011-11-12 00:53:00
8:53 PM,64.0,55.0,73,30.14,10.0,NNW,11.5,-,N/A,,Clear,330,2011-11-12 01:53:00
9:53 PM,62.1,55.0,78,30.15,10.0,NNW,8.1,-,N/A,,Clear,330,2011-11-12 02:53:00
10:53 PM,61.0,55.0,81,30.16,10.0,NNW,8.1,-,N/A,,Clear,340,2011-11-12 03:53:00
11:53 PM,60.1,55.0,83,30.15,10.0,NNW,6.9,-,N/A,,Clear,330,2011-11-12 04:53:00